Date,TemperatureHighF,TemperatureAvgF,TemperatureLowF,DewpointHighF,DewpointAvgF,DewpointLowF,HumidityHigh,HumidityAvg,HumidityLow,PressureMaxIn,PressureMinIn,WindSpeedMaxMPH,WindSpeedAvgMPH,GustSpeedMaxMPH,PrecipitationSumIn
2013-3-1,37,33,31,32,31,27,100,90,79,30.01,29.95,9,2,9,0.28
2013-3-2,40,33,27,33,29,22,100,85,71,30.03,29.95,11,4,11,0.28
2013-3-3,35,27,24,24,20,17,88,73,65,30.09,30.01,13,5,13,0.28
2013-3-4,58,37,22,38,25,16,80,62,48,30.18,30.09,9,1,9,0.28
2013-3-5,52,39,31,51,36,25,100,92,70,30.12,29.74,20,2,20,0.98
2013-3-6,34,29,26,30,26,21,95,88,76,30.24,29.83,23,6,23,0.28
2013-3-7,44,33,28,35,28,25,92,81,67,30.36,30.21,12,3,12,0.28
2013-3-8,58,36,22,40,28,20,100,74,51,30.39,30.30,10,2,10,0.28
2013-3-9,70,45,24,48,34,22,94,68,46,30.39,30.24,10,2,10,0.28
2013-3-10,70,52,37,49,39,32,85,62,46,30.30,30.18,15,2,15,0.28
2013-3-11,58,54,52,54,49,39,100,84,57,30.21,29.92,26,6,26,0.59
2013-3-12,53,44,34,52,40,32,100,85,61,30.12,29.89,15,4,15,0.28
2013-3-13,44,35,29,35,28,20,100,78,57,30.27,30.12,24,5,24,0.28
2013-3-14,48,34,25,31,22,17,74,62,50,30.36,30.24,14,5,14,0.28
2013-3-15,69,47,28,49,36,21,86,66,46,30.27,30.03,18,2,18,0.28
2013-3-16,76,59,43,57,48,40,91,70,49,30.03,29.89,19,3,19,0.28
2013-3-17,74,62,51,56,50,46,85,67,50,30.06,29.95,17,3,17,0.28
2013-3-18,57,48,43,51,45,40,100,89,71,30.09,29.92,17,3,17,0.59
2013-3-19,57,46,34,46,37,23,100,72,49,30.18,29.95,15,4,15,0.00
2013-3-20,55,40,26,36,28,21,93,65,49,30.18,29.92,19,3,19,0.00
2013-3-21,39,30,21,30,20,14,89,67,53,30.03,29.92,17,4,17,0.00
2013-3-22,49,34,19,32,23,15,88,66,48,30.09,30.01,8,1,9,0.00
2013-3-23,56,44,36,46,37,28,97,77,66,30.09,29.92,8,1,8,0.00
2013-3-24,50,44,40,48,43,39,100,96,79,29.95,29.59,13,2,13,0.87
2013-3-25,40,33,29,40,28,24,100,82,68,30.01,29.62,23,4,23,0.04
2013-3-26,38,31,28,31,28,24,100,87,76,30.27,30.01,13,3,13,0.08
2013-3-27,45,35,29,34,27,24,88,75,62,30.33,30.24,14,4,14,0.00
2013-3-28,54,37,23,37,28,21,95,72,49,30.36,30.30,15,2,15,0.00
2013-3-29,56,38,24,41,32,21,100,78,49,30.39,30.30,15,2,15,0.12
2013-3-30,65,50,40,49,43,40,100,79,54,30.30,30.12,13,2,13,0.12
2013-3-31,62,53,48,56,50,43,100,92,69,30.12,29.95,10,1,10,0.55